Flag for Canada Weather past 2 weeks in Saskatoon, Saskatchewan, Canada

Now
48 °F

Passing clouds.


Feels Like: 47 °F
Forecast: 30 / 57 °F
Wind: 3 mph from North

Location: Saskatoon Weather Station

Current Time: May 29, 2015 at 10:44:21 AM

Latest Report: May 29, 2015 at 10:00 AM


Visibility: 15 mi

Pressure: 30.48 "Hg

Humidity: 43%

Dew point: 27 °F

Location of SaskatoonLocation

Historic Weather in Saskatoon — Graph

°F

Saskatoon temperature yesterday

Maximum temperature yesterday: 57 °F (at 6:00 AM)
Minimum temperature yesterday: 37 °F (at 11:00 PM)
Average temperature yesterday: 52 °F

Past Weeks' High & Low Weather Summary

 TemperatureHumidityPressure
High82 °F (May 24, 2:00 PM)100% (May 15, 3:00 AM)30.59 "Hg (May 15, 3:00 AM)
Low25 °F (May 18, 6:00 AM)12% (May 19, 5:00 PM)29.81 "Hg (May 25, 5:00 PM)
Average57 °F45%30.14 "Hg
* Reported May 14 9:00 AM — May 29 9:00 AM, Saskatoon, Weather by CustomWeather, © 2015

Note: Actual official high and low records may vary slightly from our data, if they occured in-between our weather recording intervals... More about our weather records

Advertising

Saskatoon weather history for previous 24 hours

 ConditionsComfort  
Time TempWeatherWind HumidityBarometerVisibility
9:00 AM
Fri, May 29
45 °FScattered clouds.No wind49%30.48 "Hg15 mi
8:00 AM41 °FScattered clouds.6 mph61%30.47 "Hg15 mi
7:00 AM39 °FScattered clouds.2 mph70%30.47 "Hg15 mi
6:00 AM32 °FScattered clouds.3 mph87%30.46 "Hg15 mi
5:00 AM30 °FPassing clouds.2 mph93%30.45 "Hg15 mi
4:00 AM28 °FPassing clouds.2 mph93%30.45 "Hg15 mi
2:00 AM32 °FClear.7 mph87%30.42 "Hg15 mi
1:00 AM34 °FClear.9 mph81%30.41 "Hg15 mi
12:00 AM36 °FPassing clouds.8 mph75%30.41 "Hg15 mi
11:00 PM
Thu, May 28
37 °FPassing clouds.7 mph70%30.39 "Hg15 mi
10:00 PM41 °FClear.9 mph61%30.37 "Hg15 mi
9:00 PM46 °FSunny.10 mph50%30.34 "Hg15 mi
8:00 PM50 °FPassing clouds.13 mph43%30.31 "Hg15 mi
7:00 PM54 °FPassing clouds.17 mph35%30.28 "Hg15 mi
6:00 PM55 °FPassing clouds.21 mph36%30.26 "Hg15 mi
5:00 PM57 °FPassing clouds.21 mph36%30.24 "Hg15 mi
4:00 PM57 °FPassing clouds.23 mph33%30.21 "Hg15 mi
3:00 PM57 °FPassing clouds.21 mph36%30.20 "Hg15 mi
2:00 PM55 °FPassing clouds.21 mph41%30.19 "Hg15 mi
1:00 PM52 °FPartly sunny.22 mph54%30.19 "Hg15 mi
12:00 PM48 °FPartly sunny.24 mph76%30.16 "Hg15 mi
11:00 AM46 °FOvercast.23 mph87%30.14 "Hg15 mi
10:00 AM48 °FMostly cloudy.24 mph87%30.09 "Hg15 mi
Weather by CustomWeather, © 2015

See weather overviewHow to use our weather pages